{"data":{"norad_id":60240,"epoch":"2026-05-25T03:57:50.374368Z","epoch_age_seconds":56789,"freshness":"FRESH","line1":"1 60240U 24128F   26145.16516637  .00002637  00000+0  20792-3 0  9992","line2":"2 60240  61.9954 305.8425 0047554 128.7153 231.8205 15.02638644102651","mean_motion":15.02638644,"eccentricity":0.0047554,"inclination_deg":61.9954,"raan_deg":305.8425,"arg_perigee_deg":128.7153,"mean_anomaly_deg":231.8205,"bstar":0.00020792,"rev_number":10265,"period_min":95.831423326552,"perigee_km":525.77587561145,"apogee_km":591.75134995953,"semimajor_km":6936.9006127855,"source":"CELESTRAK","updated_at":"2026-05-25T13:38:25.535626Z"}}